�������l�o���
Date,Time,MP-1(��Sv/h),MP-2(��Sv/h),MP-3(��Sv/h),MP-4(��Sv/h),MP-5(��Sv/h),MP-6(��Sv/h),MP-7(��Sv/h),MP-8(��Sv/h),����,����(m/s),���J
2018/02/21,00:00,0.891,1.493,0.932,1.750,1.210,0.495,0.872,0.838,���쐼,5.7,�L
2018/02/21,00:10,0.891,1.493,0.933,1.750,1.212,0.494,0.870,0.838,��,5.8,��
2018/02/21,00:20,0.891,1.493,0.933,1.746,1.211,0.494,0.870,0.838,��,5.5,��
2018/02/21,00:30,0.890,1.493,0.930,1.746,1.206,0.491,0.868,0.838,��,6.9,��
2018/02/21,00:40,0.891,1.492,0.932,1.746,1.208,0.492,0.870,0.836,���k��,7.6,��
2018/02/21,00:50,0.891,1.493,0.929,1.746,1.205,0.490,0.870,0.836,��,7.1,��
2018/02/21,01:00,0.889,1.491,0.930,1.748,1.206,0.489,0.870,0.835,��,6.9,��
2018/02/21,01:10,0.890,1.492,0.931,1.746,1.206,0.489,0.869,0.837,���k��,6.8,��
2018/02/21,01:20,0.889,1.491,0.928,1.746,1.204,0.488,0.869,0.836,�k��,5.2,��
2018/02/21,01:30,0.888,1.492,0.931,1.744,1.206,0.486,0.867,0.836,�k��,6.6,��
2018/02/21,01:40,0.889,1.492,0.928,1.745,1.204,0.486,0.868,0.835,�k��,6.0,��
2018/02/21,01:50,0.889,1.491,0.929,1.748,1.204,0.487,0.866,0.834,�k��,6.6,��
2018/02/21,02:00,0.889,1.490,0.929,1.743,1.205,0.486,0.867,0.835,�k�k��,8.8,��
2018/02/21,02:10,0.888,1.492,0.931,1.745,1.202,0.487,0.866,0.835,�k�k��,8.7,��
2018/02/21,02:20,0.887,1.490,0.930,1.746,1.204,0.487,0.867,0.833,�k�k��,8.3,��
2018/02/21,02:30,0.890,1.491,0.929,1.744,1.204,0.488,0.868,0.835,�k�k��,7.5,��
2018/02/21,02:40,0.888,1.487,0.929,1.744,1.201,0.485,0.866,0.834,�k�k��,7.3,��
2018/02/21,02:50,0.888,1.490,0.926,1.744,1.200,0.483,0.868,0.835,�k�k��,7.7,��
2018/02/21,03:00,0.888,1.490,0.929,1.743,1.200,0.482,0.865,0.833,�k�k��,7.9,��
2018/02/21,03:10,0.886,1.489,0.929,1.743,1.200,0.483,0.865,0.835,�k�k��,7.3,��
2018/02/21,03:20,0.888,1.489,0.929,1.744,1.202,0.483,0.866,0.833,�k�k��,6.6,��
2018/02/21,03:30,0.888,1.487,0.928,1.743,1.202,0.484,0.866,0.835,�k�k��,6.6,��
2018/02/21,03:40,0.888,1.488,0.929,1.742,1.201,0.486,0.865,0.834,�k�k��,7.4,��
2018/02/21,03:50,0.889,1.490,0.926,1.744,1.202,0.485,0.864,0.833,�k�k��,7.4,��
2018/02/21,04:00,0.888,1.489,0.929,1.744,1.203,0.485,0.866,0.834,�k��,7.3,��
2018/02/21,04:10,0.886,1.490,0.931,1.743,1.201,0.484,0.867,0.834,�k��,7.5,��
2018/02/21,04:20,0.887,1.488,0.926,1.741,1.200,0.485,0.867,0.837,�k��,6.5,��
2018/02/21,04:30,0.889,1.486,0.928,1.742,1.199,0.486,0.866,0.835,�k��,6.5,��
2018/02/21,04:40,0.888,1.489,0.929,1.743,1.199,0.485,0.866,0.834,�k��,7.3,��
2018/02/21,04:50,0.887,1.490,0.928,1.744,1.203,0.485,0.865,0.834,�k��,6.2,��
2018/02/21,05:00,0.885,1.490,0.928,1.744,1.201,0.486,0.867,0.833,�k�k��,6.7,��
2018/02/21,05:10,0.885,1.487,0.929,1.744,1.202,0.486,0.867,0.834,�k�k��,7.4,��
2018/02/21,05:20,0.886,1.490,0.930,1.740,1.200,0.485,0.866,0.833,�k�k��,6.5,��
2018/02/21,05:30,0.886,1.490,0.927,1.744,1.203,0.485,0.868,0.834,�k�k��,6.8,��
2018/02/21,05:40,0.887,1.490,0.929,1.740,1.198,0.486,0.866,0.834,�k�k��,6.4,��
2018/02/21,05:50,0.886,1.490,0.927,1.746,1.201,0.483,0.868,0.834,�k�k��,7.2,��
2018/02/21,06:00,0.885,1.491,0.926,1.740,1.200,0.486,0.865,0.833,�k�k��,6.9,��
2018/02/21,06:10,0.886,1.489,0.926,1.743,1.200,0.484,0.867,0.834,�k�k��,6.1,��
2018/02/21,06:20,0.886,1.486,0.925,1.742,1.202,0.484,0.865,0.834,�k�k��,5.9,��
2018/02/21,06:30,0.886,1.487,0.927,1.742,1.196,0.484,0.867,0.835,�k�k��,6.2,��
2018/02/21,06:40,0.885,1.490,0.926,1.743,1.203,0.484,0.866,0.834,�k�k��,5.4,��
2018/02/21,06:50,0.884,1.487,0.927,1.743,1.202,0.485,0.866,0.835,�k�k��,5.2,��
2018/02/21,07:00,0.885,1.490,0.924,1.744,1.201,0.484,0.866,0.834,�k�k��,5.3,��
2018/02/21,07:10,0.885,1.488,0.927,1.743,1.203,0.484,0.866,0.835,�k�k��,5.8,��
2018/02/21,07:20,0.885,1.489,0.924,1.743,1.202,0.486,0.867,0.834,�k�k��,5.7,��
2018/02/21,07:30,0.883,1.489,0.926,1.744,1.202,0.485,0.867,0.834,�k��,5.8,��
2018/02/21,07:40,0.887,1.489,0.925,1.743,1.203,0.484,0.867,0.835,�k��,6.1,��
2018/02/21,07:50,0.886,1.487,0.926,1.745,1.200,0.485,0.868,0.834,�k��,6.6,��
2018/02/21,08:00,0.885,1.486,0.927,1.745,1.200,0.485,0.866,0.833,�k��,6.8,��
2018/02/21,08:10,0.885,1.490,0.925,1.743,1.200,0.484,0.867,0.834,���k��,7.2,��
2018/02/21,08:20,0.886,1.487,0.928,1.743,1.202,0.483,0.867,0.835,�k��,5.4,��
2018/02/21,08:30,0.886,1.489,0.929,1.743,1.202,0.484,0.866,0.834,�k��,5.4,��
2018/02/21,08:40,0.887,1.489,0.926,1.745,1.202,0.484,0.868,0.835,�k��,5.6,��
2018/02/21,08:50,0.888,1.484,0.926,1.741,1.203,0.485,0.866,0.838,�k��,6.1,��
2018/02/21,09:00,0.886,1.484,0.928,1.744,1.204,0.485,0.868,0.836,�k��,6.3,��
2018/02/21,09:10,0.887,1.489,0.927,1.741,1.204,0.485,0.867,0.836,�k��,6.6,��
2018/02/21,09:20,0.888,1.491,0.926,1.744,1.202,0.484,0.868,0.836,�k��,6.2,��
2018/02/21,09:30,0.886,1.488,0.928,1.742,1.204,0.483,0.870,0.835,�k��,7.1,��
2018/02/21,09:40,0.888,1.488,0.927,1.742,1.204,0.485,0.869,0.834,�k��,4.7,��
2018/02/21,09:50,0.888,1.489,0.927,1.745,1.203,0.485,0.866,0.835,�k��,5.3,��
2018/02/21,10:00,0.889,1.490,0.929,1.748,1.204,0.485,0.869,0.835,���k��,4.4,��
2018/02/21,10:10,0.888,1.487,0.927,1.746,1.206,0.486,0.869,0.836,���k��,5.2,��
2018/02/21,10:20,0.888,1.490,0.928,1.742,1.206,0.488,0.867,0.836,���k��,6.2,��
2018/02/21,10:30,0.889,1.492,0.928,1.745,1.205,0.486,0.869,0.836,���k��,5.4,��
2018/02/21,10:40,0.890,1.491,0.928,1.747,1.205,0.484,0.869,0.836,�k��,4.0,��
2018/02/21,10:50,0.891,1.491,0.929,1.744,1.206,0.485,0.868,0.836,�k��,3.6,��
2018/02/21,11:00,0.890,1.488,0.930,1.745,1.208,0.486,0.869,0.837,�k��,3.1,��
2018/02/21,11:10,0.891,1.489,0.929,1.750,1.205,0.486,0.870,0.837,���k��,4.0,��
2018/02/21,11:20,0.890,1.491,0.928,1.744,1.206,0.488,0.868,0.836,���k��,3.3,��
2018/02/21,11:30,0.890,1.493,0.930,1.744,1.207,0.486,0.869,0.837,�k��,4.3,��
2018/02/21,11:40,0.890,1.493,0.929,1.748,1.206,0.486,0.867,0.837,���k��,3.7,��
2018/02/21,11:50,0.889,1.494,0.930,1.750,1.208,0.486,0.867,0.836,��,2.9,��
2018/02/21,12:00,0.889,1.491,0.930,1.749,1.209,0.488,0.867,0.837,�k��,2.6,��
2018/02/21,12:10,0.890,1.494,0.931,1.749,1.208,0.485,0.867,0.836,�k��,1.2,��
2018/02/21,12:20,0.893,1.494,0.931,1.746,1.207,0.486,0.864,0.837,�k��,2.5,��
2018/02/21,12:30,0.890,1.497,0.930,1.748,1.208,0.488,0.866,0.837,���k��,1.7,��
2018/02/21,12:40,0.891,1.492,0.930,1.750,1.209,0.487,0.867,0.838,��,3.6,��
2018/02/21,12:50,0.890,1.496,0.931,1.751,1.210,0.486,0.866,0.837,�k��,2.3,��
2018/02/21,13:00,0.892,1.494,0.934,1.748,1.208,0.486,0.865,0.837,�k��,3.8,��
2018/02/21,13:10,0.891,1.493,0.931,1.751,1.212,0.486,0.865,0.839,�k��,3.8,��
2018/02/21,13:20,0.890,1.494,0.932,1.750,1.208,0.486,0.866,0.838,�k�k��,4.4,��
2018/02/21,13:30,0.893,1.496,0.931,1.747,1.209,0.487,0.868,0.839,�k��,5.3,��
2018/02/21,13:40,0.891,1.491,0.928,1.748,1.205,0.489,0.867,0.838,�k�k��,5.6,��
2018/02/21,13:50,0.892,1.491,0.931,1.743,1.208,0.487,0.868,0.836,�k�k��,5.4,��
2018/02/21,14:00,0.892,1.493,0.933,1.743,1.209,0.485,0.867,0.838,�k�k��,6.0,��
2018/02/21,14:10,0.889,1.492,0.931,1.744,1.210,0.487,0.868,0.837,�k�k��,4.8,��
2018/02/21,14:20,0.893,1.493,0.934,1.744,1.211,0.488,0.866,0.839,�k��,4.8,��
2018/02/21,14:30,0.889,1.491,0.932,1.742,1.210,0.486,0.868,0.838,�k�k��,4.5,��
2018/02/21,14:40,0.891,1.492,0.933,1.740,1.209,0.486,0.867,0.837,�k�k��,3.4,��
2018/02/21,14:50,0.897,1.495,0.935,1.746,1.210,0.488,0.867,0.837,�k,4.8,��
2018/02/21,15:00,0.890,1.494,0.934,1.746,1.210,0.488,0.868,0.838,�k�k��,3.3,��
2018/02/21,15:10,0.893,1.495,0.934,1.748,1.208,0.489,0.867,0.839,�k��,4.6,��
2018/02/21,15:20,0.892,1.494,0.932,1.746,1.211,0.487,0.867,0.837,���k��,5.7,��
2018/02/21,15:30,0.892,1.494,0.932,1.748,1.207,0.487,0.869,0.838,���k��,4.8,��
2018/02/21,15:40,0.891,1.497,0.931,1.748,1.210,0.488,0.870,0.839,�k��,8.4,��
2018/02/21,15:50,0.891,1.494,0.932,1.748,1.210,0.487,0.867,0.837,�k��,7.6,��
2018/02/21,16:00,0.892,1.497,0.932,1.745,1.210,0.485,0.868,0.837,�k��,8.3,��
2018/02/21,16:10,0.891,1.497,0.931,1.748,1.209,0.487,0.869,0.838,�k��,7.1,��
2018/02/21,16:20,0.891,1.497,0.931,1.744,1.210,0.487,0.870,0.839,�k�k��,7.0,��
2018/02/21,16:30,0.888,1.491,0.932,1.747,1.211,0.487,0.871,0.836,�k�k��,5.7,��
2018/02/21,16:40,0.889,1.494,0.932,1.749,1.210,0.487,0.869,0.836,�k�k��,7.9,��
2018/02/21,16:50,0.889,1.494,0.932,1.753,1.211,0.486,0.871,0.837,�k�k��,8.4,��
2018/02/21,17:00,0.886,1.493,0.932,1.752,1.208,0.486,0.870,0.837,�k�k��,6.7,��
2018/02/21,17:10,0.887,1.495,0.931,1.752,1.209,0.487,0.870,0.837,�k�k��,6.3,��
2018/02/21,17:20,0.887,1.495,0.931,1.749,1.206,0.486,0.869,0.835,�k��,5.3,��
2018/02/21,17:30,0.887,1.495,0.931,1.748,1.210,0.486,0.868,0.837,�k�k��,5.0,��
2018/02/21,17:40,0.889,1.492,0.931,1.751,1.208,0.486,0.868,0.838,�k�k��,3.5,��
2018/02/21,17:50,0.887,1.494,0.929,1.751,1.207,0.487,0.868,0.836,�k�k��,3.4,��
2018/02/21,18:00,0.888,1.497,0.930,1.744,1.207,0.485,0.869,0.835,�k�k��,5.4,��
2018/02/21,18:10,0.888,1.494,0.932,1.752,1.207,0.487,0.868,0.836,�k�k��,7.2,��
2018/02/21,18:20,0.887,1.496,0.932,1.750,1.208,0.487,0.868,0.837,�k�k��,5.8,��
2018/02/21,18:30,0.888,1.495,0.932,1.749,1.207,0.487,0.867,0.834,�k�k��,5.5,��
2018/02/21,18:40,0.889,1.494,0.931,1.749,1.204,0.487,0.871,0.836,�k�k��,5.8,��
2018/02/21,18:50,0.888,1.496,0.932,1.748,1.207,0.487,0.866,0.837,�k,4.8,��
2018/02/21,19:00,0.887,1.495,0.930,1.750,1.205,0.487,0.867,0.835,�k,4.9,��
2018/02/21,19:10,0.889,1.494,0.928,1.747,1.207,0.487,0.866,0.837,�k,5.1,��
2018/02/21,19:20,0.888,1.494,0.931,1.747,1.209,0.487,0.867,0.835,�k,4.4,��
2018/02/21,19:30,0.887,1.494,0.930,1.748,1.207,0.485,0.868,0.836,�k,4.4,��
2018/02/21,19:40,0.886,1.495,0.928,1.748,1.208,0.487,0.866,0.835,�k,4.2,��
2018/02/21,19:50,0.887,1.491,0.930,1.747,1.206,0.486,0.866,0.835,�k,4.7,��
2018/02/21,20:00,0.886,1.492,0.932,1.745,1.207,0.488,0.866,0.836,�k,3.9,��
2018/02/21,20:10,0.886,1.493,0.927,1.749,1.205,0.486,0.867,0.836,�k,3.8,��
2018/02/21,20:20,0.886,1.493,0.929,1.746,1.205,0.486,0.868,0.835,�k,4.1,��
2018/02/21,20:30,0.888,1.493,0.928,1.745,1.207,0.486,0.866,0.836,�k,3.2,��
2018/02/21,20:40,0.885,1.492,0.929,1.747,1.206,0.485,0.866,0.835,�k�k��,3.5,��
2018/02/21,20:50,0.886,1.495,0.927,1.746,1.202,0.485,0.867,0.833,�k�k��,3.9,��
2018/02/21,21:00,0.887,1.493,0.928,1.747,1.206,0.486,0.867,0.835,�k�k��,3.9,��
2018/02/21,21:10,0.887,1.494,0.929,1.747,1.205,0.487,0.866,0.834,�k�k��,4.2,��
2018/02/21,21:20,0.886,1.491,0.928,1.746,1.207,0.487,0.865,0.834,�k��,5.6,��
2018/02/21,21:30,0.888,1.491,0.929,1.745,1.206,0.486,0.867,0.835,�k��,4.9,��
2018/02/21,21:40,0.886,1.493,0.929,1.746,1.203,0.486,0.866,0.835,�k��,5.2,��
2018/02/21,21:50,0.885,1.492,0.929,1.748,1.204,0.486,0.866,0.836,�k��,6.0,��
2018/02/21,22:00,0.885,1.493,0.927,1.745,1.207,0.485,0.867,0.835,�k��,7.0,��
2018/02/21,22:10,0.884,1.493,0.929,1.747,1.205,0.486,0.866,0.833,�k��,6.8,��
2018/02/21,22:20,0.886,1.495,0.929,1.747,1.205,0.486,0.867,0.835,�k��,7.0,��
2018/02/21,22:30,0.885,1.492,0.931,1.746,1.206,0.486,0.868,0.834,�k��,7.2,��
2018/02/21,22:40,0.887,1.492,0.927,1.749,1.206,0.487,0.868,0.836,�k��,6.1,��
2018/02/21,22:50,0.885,1.492,0.930,1.745,1.207,0.485,0.867,0.835,�k��,6.5,��
2018/02/21,23:00,0.888,1.496,0.929,1.747,1.205,0.486,0.865,0.834,�k��,6.2,��
2018/02/21,23:10,0.888,1.491,0.927,1.746,1.208,0.486,0.868,0.835,�k��,5.8,��
2018/02/21,23:20,0.886,1.492,0.927,1.746,1.206,0.484,0.867,0.836,�k��,5.6,��
2018/02/21,23:30,0.885,1.494,0.928,1.745,1.207,0.486,0.867,0.835,�k��,6.4,��
2018/02/21,23:40,0.886,1.494,0.927,1.749,1.205,0.486,0.868,0.836,�k��,5.8,��
2018/02/21,23:50,0.885,1.494,0.929,1.745,1.208,0.486,0.870,0.835,�k��,5.1,��
